• In Netherlands
  • List of Countries
  • For 7 days
  • Water Temperature
  • Satellite Maps
  • Weather Map
  • Weather Widgets
  • user-avatar
    Login

    Hourly Weather Yerevan

    Today, 21 January, Saturday

    Time Temperature Precipitation Wind Pressure Humidity
    00:00 -5°C° 0.1 mm 0 mps 691 mmHg 88%
    01:00 -5°C° 0.1 mm 0 mps 690 mmHg 88%
    02:00 -6°C° 0.1 mm 0 mps 690 mmHg 88%
    03:00 -6°C° 0 mm 0 mps 690 mmHg 91%
    04:00 -7°C° 0 mm 1 mps 690 mmHg 91%
    05:00 -8°C° 0 mm 1 mps 690 mmHg 91%
    06:00 -8°C° 0 mm 1 mps 690 mmHg 91%
    07:00 -6°C° 0 mm 1 mps 690 mmHg 89%
    08:00 -4°C° 0 mm 1 mps 691 mmHg 86%
    09:00 -2°C° 0 mm 1 mps 691 mmHg 84%
    10:00 -1°C° 0 mm 1 mps 691 mmHg 82%
    11:00 +1°C° 0 mm 1 mps 691 mmHg 80%
    12:00 +2°C° 0 mm 1 mps 691 mmHg 79%
    13:00 +2°C° 0 mm 1 mps 691 mmHg 80%
    14:00 +2°C° 0 mm 1 mps 690 mmHg 81%
    15:00 +2°C° 0 mm 1 mps 690 mmHg 82%
    16:00 -1°C° 0 mm 1 mps 690 mmHg 86%
    17:00 -4°C° 0 mm 1 mps 689 mmHg 89%
    18:00 -8°C° 0 mm 0 mps 689 mmHg 93%
    19:00 -9°C° 0 mm 1 mps 689 mmHg 92%
    20:00 -9°C° 0 mm 1 mps 689 mmHg 91%
    21:00 -10°C° 0 mm 1 mps 689 mmHg 89%
    22:00 -10°C° 0 mm 1 mps 689 mmHg 89%
    23:00 -10°C° 0 mm 1 mps 690 mmHg 88%

    Tomorrow, 22 January, Sunday

    Time Temperature Precipitation Wind Pressure Humidity
    00:00 -10°C° 0 mm 1 mps 690 mmHg 88%
    01:00 -10°C° 0 mm 1 mps 690 mmHg 87%
    02:00 -10°C° 0 mm 1 mps 690 mmHg 87%
    03:00 -10°C° 0 mm 1 mps 690 mmHg 86%
    04:00 -10°C° 0 mm 1 mps 690 mmHg 86%
    05:00 -9°C° 0 mm 1 mps 690 mmHg 86%
    06:00 -9°C° 0 mm 1 mps 691 mmHg 85%
    07:00 -7°C° 0 mm 1 mps 691 mmHg 83%
    08:00 -4°C° 0 mm 1 mps 692 mmHg 81%
    09:00 -2°C° 0 mm 1 mps 692 mmHg 79%
    10:00 -1°C° 0 mm 1 mps 692 mmHg 77%
    11:00 0°C° 0 mm 1 mps 692 mmHg 75%
    12:00 +2°C° 0 mm 1 mps 692 mmHg 74%
    13:00 +2°C° 0 mm 1 mps 692 mmHg 75%
    14:00 +2°C° 0 mm 1 mps 691 mmHg 77%
    15:00 +2°C° 0 mm 1 mps 691 mmHg 78%
    16:00 -2°C° 0 mm 2 mps 691 mmHg 80%
    17:00 -5°C° 0 mm 2 mps 692 mmHg 82%
    18:00 -7°C° 0 mm 2 mps 692 mmHg 84%
    19:00 -7°C° 0 mm 2 mps 692 mmHg 83%
    20:00 -7°C° 0 mm 2 mps 693 mmHg 82%
    21:00 -8°C° 0 mm 2 mps 693 mmHg 81%
    22:00 -8°C° 0 mm 2 mps 694 mmHg 81%
    23:00 -7°C° 0 mm 1 mps 694 mmHg 81%

    Day after tomorrow, 23 January, Monday

    Time Temperature Precipitation Wind Pressure Humidity
    00:00 -8°C° 0 mm 1 mps 694 mmHg 82%
    01:00 -8°C° 0 mm 1 mps 694 mmHg 82%
    02:00 -9°C° 0 mm 1 mps 695 mmHg 82%
    03:00 -9°C° 0 mm 1 mps 695 mmHg 82%
    04:00 -9°C° 0 mm 1 mps 695 mmHg 83%
    05:00 -9°C° 0 mm 1 mps 695 mmHg 83%
    06:00 -9°C° 0 mm 1 mps 695 mmHg 83%
    07:00 -8°C° 0 mm 1 mps 696 mmHg 82%
    08:00 -6°C° 0 mm 1 mps 697 mmHg 80%
    09:00 -3°C° 0 mm 1 mps 698 mmHg 78%
    10:00 -1°C° 0 mm 1 mps 697 mmHg 76%
    11:00 +1°C° 0 mm 1 mps 697 mmHg 74%
    12:00 +1°C° 0 mm 0 mps 697 mmHg 72%
    13:00 +1°C° 0 mm 0 mps 697 mmHg 73%
    14:00 +3°C° 0 mm 1 mps 696 mmHg 75%
    15:00 +3°C° 0 mm 1 mps 696 mmHg 76%
    16:00 -1°C° 0 mm 1 mps 695 mmHg 80%
    17:00 -4°C° 0 mm 1 mps 695 mmHg 84%
    18:00 -9°C° 0 mm 1 mps 694 mmHg 87%
    19:00 -9°C° 0 mm 1 mps 694 mmHg 87%
    20:00 -9°C° 0 mm 1 mps 695 mmHg 86%
    21:00 -9°C° 0 mm 1 mps 695 mmHg 86%
    22:00 -9°C° 0 mm 1 mps 695 mmHg 85%
    23:00 -10°C° 0 mm 1 mps 695 mmHg 85%

    24 January, Tuesday

    Time Temperature Precipitation Wind Pressure Humidity
    00:00 -10°C° 0 mm 0 mps 695 mmHg 85%
    01:00 -10°C° 0 mm 0 mps 695 mmHg 85%
    02:00 -11°C° 0 mm 0 mps 695 mmHg 85%
    03:00 -11°C° 0 mm 0 mps 695 mmHg 85%
    04:00 -11°C° 0 mm 0 mps 695 mmHg 84%
    05:00 -11°C° 0 mm 1 mps 695 mmHg 83%
    06:00 -11°C° 0 mm 1 mps 695 mmHg 82%
    07:00 -8°C° 0 mm 1 mps 696 mmHg 80%
    08:00 -6°C° 0 mm 1 mps 697 mmHg 77%
    09:00 -2°C° 0 mm 1 mps 698 mmHg 74%
    10:00 0°C° 0 mm 1 mps 698 mmHg 73%
    11:00 +2°C° 0 mm 1 mps 697 mmHg 71%
    12:00 +3°C° 0 mm 1 mps 697 mmHg 70%
    13:00 +3°C° 0 mm 1 mps 696 mmHg 71%
    14:00 +3°C° 0 mm 1 mps 696 mmHg 73%
    15:00 +3°C° 0 mm 1 mps 695 mmHg 75%
    16:00 0°C° 0 mm 1 mps 695 mmHg 77%
    17:00 -4°C° 0 mm 1 mps 694 mmHg 80%
    18:00 -8°C° 0 mm 1 mps 693 mmHg 83%
    19:00 -8°C° 0 mm 1 mps 693 mmHg 82%
    20:00 -9°C° 0 mm 1 mps 694 mmHg 81%
    21:00 -9°C° 0 mm 1 mps 694 mmHg 81%
    22:00 -9°C° 0 mm 1 mps 694 mmHg 79%
    23:00 -9°C° 0 mm 1 mps 693 mmHg 77%

    25 January, Wednesday

    Time Temperature Precipitation Wind Pressure Humidity
    00:00 -9°C° 0 mm 1 mps 693 mmHg 76%
    01:00 -9°C° 0 mm 1 mps 693 mmHg 74%
    02:00 -9°C° 0 mm 1 mps 692 mmHg 72%
    03:00 -9°C° 0 mm 1 mps 692 mmHg 70%
    04:00 -8°C° 0 mm 1 mps 691 mmHg 69%
    05:00 -7°C° 0 mm 1 mps 691 mmHg 68%
    06:00 -7°C° 0 mm 1 mps 691 mmHg 66%
    07:00 -4°C° 0 mm 1 mps 691 mmHg 66%
    08:00 -2°C° 0 mm 1 mps 691 mmHg 65%
    09:00 -1°C° 0 mm 1 mps 692 mmHg 65%
    10:00 -1°C° 0 mm 2 mps 691 mmHg 65%
    11:00 +2°C° 0 mm 2 mps 690 mmHg 65%
    12:00 +4°C° 0 mm 2 mps 690 mmHg 65%
    13:00 +4°C° 0 mm 2 mps 689 mmHg 68%
    14:00 +4°C° 0 mm 2 mps 689 mmHg 70%
    15:00 +3°C° 0 mm 2 mps 688 mmHg 73%
    16:00 +2°C° 0 mm 2 mps 688 mmHg 75%
    17:00 -1°C° 0 mm 2 mps 688 mmHg 76%
    18:00 -2°C° 0 mm 2 mps 688 mmHg 78%
    19:00 -2°C° 0.1 mm 2 mps 688 mmHg 78%
    20:00 -2°C° 0.1 mm 2 mps 688 mmHg 78%
    21:00 -3°C° 0.1 mm 2 mps 688 mmHg 79%
    22:00 -3°C° 0.1 mm 2 mps 688 mmHg 78%
    23:00 -3°C° 0.1 mm 2 mps 687 mmHg 78%

    26 January, Thursday

    Time Temperature Precipitation Wind Pressure Humidity
    00:00 -3°C° 0.1 mm 2 mps 687 mmHg 77%
    01:00 -3°C° 0 mm 2 mps 687 mmHg 77%
    02:00 -4°C° 0 mm 2 mps 687 mmHg 76%
    03:00 -4°C° 0 mm 2 mps 686 mmHg 76%
    04:00 -3°C° 0.1 mm 2 mps 686 mmHg 77%
    05:00 -2°C° 0.1 mm 2 mps 686 mmHg 78%
    06:00 -2°C° 0.1 mm 2 mps 686 mmHg 79%
    07:00 -1°C° 0.2 mm 2 mps 686 mmHg 80%
    08:00 -1°C° 0.2 mm 2 mps 686 mmHg 81%
    09:00 +1°C° 0.2 mm 2 mps 686 mmHg 82%
    10:00 +2°C° 0.3 mm 2 mps 685 mmHg 82%
    11:00 +2°C° 0.3 mm 2 mps 685 mmHg 82%
    12:00 +3°C° 0.3 mm 2 mps 684 mmHg 82%
    13:00 +3°C° 0.3 mm 2 mps 684 mmHg 83%
    14:00 +3°C° 0.3 mm 2 mps 684 mmHg 83%
    15:00 +3°C° 0.3 mm 2 mps 683 mmHg 84%
    16:00 +2°C° 0.2 mm 2 mps 683 mmHg 86%
    17:00 +1°C° 0.2 mm 2 mps 683 mmHg 88%
    18:00 +1°C° 0.2 mm 1 mps 684 mmHg 90%
    19:00 +1°C° 0.2 mm 1 mps 684 mmHg 89%
    20:00 +1°C° 0.2 mm 1 mps 684 mmHg 89%
    21:00 +1°C° 0.2 mm 1 mps 684 mmHg 89%
    22:00 +1°C° 0.3 mm 1 mps 684 mmHg 89%
    23:00 +1°C° 0.3 mm 1 mps 684 mmHg 89%
    Show more